Wind_Speed
25 27 28 29 30 31 31 31 31 32 30 29 30 28 28 27 25 25 26 25 24 25 25 26 26 26 26 25 25 26 26 25 25 26 26 26 27 26 26 26 26 25 26
25 27 28 29 29 29 30 30 30 31 31 30 29 29 29 27 27 25 25 24 24 23 26 27 27 26 26 27 26 26 26 27 26 27 28 28 28 28 28 28 28 27 27
24 26 27 28 28 29 30 30 29 29 30 30 30 29 29 28 26 25 25 24 23 22 23 25 25 24 23 25 26 27 26 26 26 26 27 28 29 30 30 30 30 30 29
22 23 25 26 27 28 28 29 29 29 29 30 29 29 28 27 26 24 23 22 23 24 24 24 25 24 25 25 25 25 27 27 27 27 27 28 29 30 31 32 32 32 32
22 24 25 25 27 28 28 28 28 28 29 29 29 30 30 29 28 27 25 23 24 25 24 24 24 25 26 26 26 27 28 28 29 30 31 31 30 30 32 32 33 34 34
22 23 24 24 25 26 27 26 28 28 28 28 29 29 29 29 28 27 26 26 26 25 24 25 25 25 26 27 28 29 29 28 29 30 32 32 32 32 33 34 34 35 36
22 22 22 22 23 24 24 25 26 27 27 28 27 28 28 28 29 28 28 27 27 27 25 25 25 25 25 26 28 29 30 30 31 32 32 34 34 34 35 35 35 35 36
19 19 19 21 22 24 24 25 25 25 26 27 28 28 29 30 29 29 28 28 27 27 28 28 27 26 25 26 27 29 30 31 32 33 34 33 34 34 34 34 35 36 37
16 18 19 21 22 24 24 25 25 26 26 27 27 28 28 28 28 28 27 26 26 26 26 27 27 26 25 26 27 28 29 29 30 31 31 33 34 35 35 36 36 36 36
17 18 19 20 21 22 23 24 25 25 26 26 26 26 27 27 27 27 27 26 24 24 25 25 26 25 24 23 24 26 27 28 29 30 31 32 34 35 34 33 35 35 36
17 18 19 20 21 21 21 23 22 23 24 24 25 26 26 26 26 26 25 25 25 25 25 24 24 24 24 23 24 25 26 27 28 29 30 31 31 31 31 32 33 35 35
17 18 19 20 21 21 21 22 22 23 23 24 24 25 25 26 26 25 25 25 25 24 24 24 24 24 24 24 24 24 25 26 27 28 29 29 29 29 29 30 32 33 33
19 19 19 20 21 21 22 22 23 23 23 24 24 25 25 26 26 25 25 24 24 24 24 23 23 23 23 23 24 25 25 25 26 26 27 27 27 27 28 29 29 30 31
20 20 20 20 20 21 21 22 22 22 22 22 23 23 24 24 25 25 25 24 24 24 24 23 23 23 23 24 24 24 25 25 25 25 25 25 26 27 27 27 27 27 28
21 21 21 21 21 20 20 21 21 20 21 21 22 22 22 23 23 23 23 23 23 22 22 23 23 23 23 22 22 22 23 23 23 24 24 25 25 25 25 25 25 25 26
20 20 20 20 20 20 20 19 19 19 19 20 20 21 21 21 21 21 21 20 20 20 21 21 21 21 21 21 21 21 22 22 23 23 23 23 22 22 22 23 23 24 25
21 21 20 20 20 19 18 18 17 17 16 16 17 17 17 17 17 17 18 18 18 19 19 20 19 19 20 19 19 20 20 21 22 22 21 20 20 21 21 22 22 23 24
20 19 19 18 17 16 16 15 15 14 14 13 13 12 13 12 13 14 14 14 15 15 16 17 17 17 18 18 19 19 19 19 19 19 19 20 20 20 21 21 22 22 22
18 18 17 16 15 14 14 14 13 13 12 11 11 10 11 11 11 12 12 12 12 12 13 14 15 16 16 18 18 18 17 18 18 18 18 19 19 19 20 20 20 20 20
16 16 15 13 12 12 11 11 11 10 10 9 9 9 9 9 9 9 9 9 10 10 11 12 13 13 14 15 15 15 15 15 16 17 18 18 18 18 18 18 18 18 17
15 14 13 11 9 9 8 8 7 7 7 6 7 7 7 7 7 6 7 7 8 9 10 11 12 12 12 13 13 13 14 14 15 15 15 16 16 16 16 16 16 16 16
13 11 10 8 7 7 7 6 5 5 5 5 6 6 5 5 5 5 6 6 7 8 8 9 10 10 11 11 12 13 13 13 13 13 14 14 15 15 15 14 14 14 14
11 9 7 7 7 6 6 5 4 4 3 3 3 3 4 4 5 5 5 6 6 6 7 8 8 9 9 10 10 10 11 11 12 12 12 12 12 12 13 13 13 13 13
9 8 6 6 6 5 5 5 4 4 4 3 3 3 3 3 3 3 3 4 4 5 6 6 7 7 7 7 8 8 9 10 10 11 11 11 11 11 11 11 11 11 11
8 7 6 6 5 5 5 5 5 4 4 3 3 3 3 3 3 3 3 3 4 4 4 4 5 5 6 6 6 6 7 8 8 9 9 9 9 10 10 9 9 9 9
8 7 7 6 6 6 6 5 5 5 4 4 4 3 3 3 3 3 3 3 3 3 3 4 4 4 4 5 5 5 6 6 6 6 7 7 8 8 7 7 7 7 6
Wind_Direction
272 270 269 269 268 264 263 263 265 266 265 263 264 264 262 259 259 254 257 256 252 249 249 253 254 254 254 253 255 254 251 251 251 252 252 252 253 253 256 258 259 261 264
272 272 271 271 269 268 266 265 266 266 266 267 269 267 266 261 259 256 255 253 248 251 252 252 254 257 256 255 255 254 254 253 252 251 251 253 254 255 257 259 261 262 265
275 274 272 272 270 269 268 266 268 268 267 268 268 270 270 268 267 261 258 257 255 255 258 254 253 254 256 256 255 254 254 253 253 253 253 253 254 257 258 259 261 263 265
277 276 272 271 270 268 268 267 267 268 268 268 269 270 270 270 271 268 264 264 262 259 260 261 259 257 258 258 256 254 253 252 252 254 256 257 259 259 259 260 261 263 264
278 279 277 273 271 270 269 267 267 267 267 266 267 269 268 269 270 269 266 265 264 262 264 264 262 261 262 261 259 258 255 254 254 255 257 260 259 260 262 263 263 265 267
279 280 278 276 274 271 268 268 265 265 265 266 266 267 266 268 269 267 267 266 265 263 263 264 263 262 264 261 259 260 259 259 258 258 258 259 260 263 264 265 265 267 269
280 281 278 278 276 274 273 271 268 266 267 268 268 268 267 268 269 269 270 267 266 265 266 266 265 264 264 261 260 260 259 259 259 260 260 260 261 264 264 265 266 268 270
283 279 279 279 277 274 274 273 271 269 270 270 270 269 268 267 268 268 268 267 267 266 264 265 266 266 266 263 261 262 260 259 260 261 261 261 262 263 263 265 267 267 269
288 283 284 282 279 277 275 274 275 274 273 271 270 269 269 268 269 269 268 268 267 265 264 264 266 266 265 263 264 263 261 261 261 262 262 263 264 264 264 266 266 267 268
294 288 287 285 285 283 278 277 277 276 275 272 270 270 270 269 269 267 266 267 266 265 265 266 267 266 264 264 265 263 261 262 263 263 263 265 266 265 265 267 267 267 269
296 291 289 289 289 286 283 282 281 279 276 274 271 271 270 270 269 267 265 264 266 265 265 266 265 263 263 265 265 265 264 264 265 265 266 266 266 265 267 269 270 271 272
296 293 291 291 290 287 287 286 284 283 280 277 273 272 271 270 269 267 265 264 264 264 263 263 264 263 263 265 266 266 266 267 266 268 268 267 268 269 270 270 271 272 272
301 297 296 293 290 287 287 287 287 286 284 281 277 274 272 271 268 265 264 264 264 265 264 264 263 262 263 265 266 265 267 268 267 268 267 267 270 270 269 271 271 271 271
304 301 299 297 292 290 289 288 288 286 284 282 279 276 272 269 266 263 263 263 262 262 263 262 260 260 264 265 263 264 265 266 266 267 267 269 271 270 271 271 273 274 274
305 303 300 297 294 292 291 288 287 286 284 283 281 278 275 271 266 264 263 262 260 259 260 259 259 260 262 263 261 261 263 265 266 267 268 268 270 272 272 273 275 276 277
309 306 302 298 295 294 292 289 287 287 285 283 281 278 275 271 265 263 261 259 256 255 256 258 258 259 260 260 259 259 261 264 266 267 268 269 270 272 273 275 276 277 278
311 309 304 299 296 295 294 290 288 289 290 288 285 281 275 271 267 264 261 257 255 256 256 258 258 259 256 256 259 261 261 264 265 266 267 268 271 274 275 275 277 278 279
312 310 305 300 297 296 295 292 290 289 289 290 286 283 278 273 271 265 262 257 255 256 253 253 255 254 252 256 258 258 258 261 262 264 267 270 274 275 275 276 277 278 279
313 311 308 302 297 296 293 290 288 287 286 287 287 282 279 273 268 266 263 258 254 254 253 255 258 256 256 258 256 255 257 259 262 266 269 272 274 274 276 277 278 279 281
315 314 312 308 302 299 295 290 287 286 284 287 286 282 281 273 269 264 262 257 256 256 256 259 261 259 259 258 258 260 263 266 267 268 270 272 274 275 277 278 280 281 281
319 319 317 313 308 306 305 299 290 284 283 286 286 285 279 276 272 266 264 263 260 258 256 261 263 263 261 262 264 266 268 270 269 271 272 273 273 276 278 280 280 280 281
325 325 324 323 322 319 315 309 306 302 297 294 289 289 287 286 283 275 271 270 269 264 262 263 267 270 270 271 270 269 270 271 273 273 275 275 276 278 280 281 281 281 283
334 332 333 338 337 336 337 331 328 320 320 324 317 303 297 295 298 292 283 276 275 271 272 272 275 275 275 275 272 272 274 276 276 276 276 277 278 280 281 281 281 282 284
348 348 349 352 352 355 357 -0 1 355 357 358 350 343 332 327 324 315 304 290 289 288 288 286 287 285 282 283 282 281 278 277 279 280 279 278 280 280 280 282 283 284 282
4 7 11 12 14 17 18 18 17 15 14 14 10 4 0 357 343 331 327 318 311 313 306 307 307 299 294 293 292 288 286 285 286 283 278 282 284 283 283 283 285 284 281
18 22 24 29 32 35 34 28 28 28 30 26 22 16 19 18 11 1 351 345 344 347 348 343 336 329 320 313 313 308 308 308 300 293 285 284 287 288 287 286 284 281 281
Height
5818 5818 5817 5817 5817 5817 5817 5818 5818 5817 5815 5816 5816 5816 5816 5819 5820 5821 5821 5822 5822 5822 5824 5826 5827 5828 5829 5831 5832 5833 5834 5835 5836 5837 5838 5839 5840 5842 5843 5843 5844 5844 5845
5812 5812 5811 5810 5809 5810 5810 5811 5812 5811 5810 5809 5809 5811 5810 5812 5814 5814 5815 5815 5815 5816 5818 5820 5821 5822 5823 5824 5825 5826 5827 5828 5829 5831 5832 5833 5834 5835 5836 5837 5838 5838 5838
5806 5806 5805 5804 5803 5804 5804 5804 5804 5805 5805 5804 5804 5805 5806 5806 5807 5807 5808 5809 5810 5811 5811 5812 5814 5815 5816 5817 5818 5819 5821 5822 5823 5824 5826 5827 5827 5828 5829 5829 5831 5831 5832
5801 5800 5799 5798 5798 5798 5798 5798 5798 5798 5799 5799 5799 5800 5800 5801 5801 5801 5801 5802 5804 5805 5805 5807 5808 5809 5810 5811 5811 5813 5814 5815 5816 5817 5819 5820 5821 5821 5821 5822 5823 5824 5824
5795 5794 5793 5793 5792 5791 5791 5792 5792 5792 5792 5793 5793 5793 5794 5795 5796 5796 5795 5796 5798 5799 5799 5800 5801 5802 5803 5804 5804 5806 5807 5808 5809 5810 5811 5812 5813 5813 5814 5814 5815 5816 5816
5789 5788 5787 5786 5785 5784 5784 5784 5785 5785 5785 5786 5786 5787 5788 5788 5789 5789 5789 5790 5791 5792 5792 5793 5794 5794 5795 5796 5797 5798 5799 5800 5802 5802 5803 5804 5805 5806 5806 5806 5807 5807 5808
5784 5782 5781 5780 5779 5778 5778 5778 5778 5778 5778 5778 5779 5780 5781 5782 5782 5782 5782 5783 5784 5785 5785 5786 5786 5787 5787 5788 5789 5790 5791 5793 5793 5794 5795 5796 5796 5797 5797 5798 5798 5798 5798
5777 5777 5776 5775 5774 5774 5773 5772 5772 5772 5772 5772 5772 5773 5774 5775 5775 5775 5776 5776 5777 5778 5778 5778 5779 5779 5780 5781 5781 5782 5783 5784 5785 5785 5786 5787 5788 5788 5789 5789 5789 5789 5789
5773 5772 5771 5770 5769 5768 5767 5766 5765 5765 5765 5765 5765 5765 5766 5767 5767 5768 5768 5768 5769 5770 5770 5770 5771 5772 5772 5773 5773 5774 5774 5775 5776 5777 5777 5778 5779 5779 5780 5780 5780 5781 5780
5768 5767 5766 5765 5764 5762 5761 5760 5759 5758 5758 5758 5758 5758 5758 5759 5759 5759 5760 5760 5761 5762 5762 5763 5764 5764 5764 5765 5765 5766 5766 5767 5768 5768 5769 5769 5770 5770 5770 5770 5770 5770 5771
5763 5762 5761 5759 5758 5756 5755 5753 5752 5751 5750 5750 5750 5751 5751 5751 5751 5751 5752 5753 5754 5754 5755 5755 5756 5756 5757 5757 5758 5758 5759 5759 5759 5760 5760 5760 5761 5761 5761 5761 5761 5761 5761
5758 5757 5755 5753 5752 5750 5749 5747 5746 5745 5744 5743 5743 5743 5743 5743 5743 5743 5744 5745 5746 5747 5747 5748 5748 5749 5750 5750 5750 5751 5751 5751 5752 5752 5752 5752 5752 5752 5752 5752 5752 5752 5751
5753 5751 5749 5747 5745 5744 5742 5741 5739 5738 5737 5736 5735 5735 5735 5735 5735 5735 5736 5737 5738 5739 5740 5740 5741 5742 5742 5742 5743 5743 5743 5744 5744 5744 5744 5744 5744 5744 5744 5744 5743 5743 5743
5748 5745 5743 5741 5739 5737 5735 5734 5733 5731 5730 5729 5728 5728 5727 5727 5727 5727 5728 5729 5730 5731 5732 5733 5734 5734 5735 5735 5735 5736 5736 5736 5737 5737 5737 5737 5737 5736 5736 5736 5735 5735 5734
5742 5739 5737 5734 5732 5730 5729 5727 5726 5724 5723 5722 5721 5720 5720 5719 5719 5720 5720 5721 5722 5723 5724 5725 5726 5727 5727 5728 5728 5729 5729 5729 5729 5730 5730 5729 5729 5729 5729 5728 5728 5727 5726
5736 5733 5730 5728 5726 5724 5722 5721 5719 5718 5716 5715 5714 5713 5713 5712 5712 5713 5713 5714 5715 5716 5717 5718 5719 5720 5720 5721 5721 5722 5722 5722 5723 5723 5723 5723 5722 5722 5722 5721 5720 5720 5719
5730 5727 5724 5722 5720 5718 5716 5714 5713 5712 5710 5709 5708 5707 5706 5706 5706 5706 5707 5708 5709 5709 5710 5711 5712 5713 5713 5714 5715 5715 5715 5716 5716 5716 5716 5716 5716 5715 5715 5714 5713 5712 5711
5724 5721 5718 5716 5714 5712 5710 5709 5708 5706 5705 5704 5703 5702 5701 5701 5701 5701 5702 5702 5703 5703 5704 5705 5706 5707 5707 5708 5708 5709 5709 5709 5710 5710 5710 5709 5709 5709 5708 5707 5706 5705 5704
5719 5716 5713 5711 5709 5707 5705 5704 5703 5702 5701 5700 5699 5698 5698 5697 5697 5697 5697 5698 5698 5699 5699 5700 5701 5701 5702 5702 5702 5703 5703 5703 5703 5703 5703 5703 5703 5702 5701 5700 5699 5698 5697
5714 5711 5709 5706 5704 5703 5701 5700 5699 5698 5697 5696 5695 5695 5694 5694 5694 5694 5694 5694 5695 5695 5695 5696 5696 5696 5697 5697 5697 5697 5698 5698 5698 5698 5697 5697 5697 5696 5695 5694 5693 5692 5691
5710 5707 5705 5703 5701 5700 5698 5697 5696 5695 5694 5694 5693 5692 5692 5691 5691 5691 5691 5691 5691 5692 5692 5692 5692 5693 5693 5693 5693 5693 5693 5693 5693 5692 5692 5691 5691 5690 5689 5689 5688 5687 5686
5706 5704 5702 5700 5699 5697 5696 5695 5694 5693 5692 5692 5691 5690 5689 5689 5689 5689 5689 5689 5689 5689 5689 5689 5689 5689 5689 5689 5688 5688 5688 5688 5688 5687 5687 5686 5686 5685 5684 5684 5683 5682 5681
5704 5702 5700 5698 5697 5696 5695 5694 5693 5692 5691 5690 5689 5689 5688 5688 5687 5687 5686 5686 5686 5686 5686 5686 5686 5686 5685 5685 5684 5684 5684 5683 5683 5683 5682 5682 5681 5681 5680 5680 5679 5678 5677
5702 5700 5699 5697 5696 5695 5694 5693 5692 5691 5690 5689 5689 5688 5687 5687 5686 5685 5685 5685 5685 5684 5684 5684 5683 5683 5682 5682 5681 5681 5681 5680 5680 5679 5679 5678 5678 5677 5677 5676 5675 5674 5673
5701 5700 5698 5697 5696 5695 5694 5693 5692 5691 5690 5689 5688 5687 5687 5686 5685 5685 5684 5684 5683 5683 5682 5682 5681 5681 5680 5680 5679 5679 5678 5677 5676 5676 5675 5675 5675 5674 5673 5672 5672 5671 5671
5702 5700 5698 5697 5696 5695 5694 5693 5692 5691 5690 5689 5688 5687 5686 5686 5685 5684 5684 5683 5683 5682 5681 5681 5680 5679 5679 5678 5677 5677 5676 5675 5674 5673 5673 5673 5672 5671 5670 5670 5670 5669 5668